Хатынгнах-Джура

Россия / Республика Саха (Якутия)     65°44′07″N   132°44′22″E
темп.,
°C
ветер,
м/с
пор.,
м/с
влажн.,
%
обл.,
%
осадки,
мм/ч
давл.,
гПа
погр.,
м
1 марта, пн
пн101:00−37ю129847 0.0 102419
04:00−36ююв129434 0.0 102319
07:00−36ююв1193100 0.0 102319
10:00−33вюв0088100 0.0 102219
13:00−30всв008191 0.0 1021182
16:00−28ссз008595 0.0 1020200
19:00−31с119397 0.0 102119
22:00−30с119698 0.0 102119
2 марта, вт
вт201:00−30с1199100 0.1 102219
04:00−30с1198100 0.2 102219
07:00−30с1298100 0.1 102319
10:00−30с2297100 0.1 102389
13:00−29с219090 0.0 1023265
16:00−28с229095 0.0 1023304
19:00−34с2210085 0.0 102519
22:00−36с2210088 0.0 102519
3 марта, ср
ср301:00−34ссз11100100 0.0 102519
04:00−34ссз1199100 0.1 102419
07:00−33с1199100 0.3 102329
10:00−32ссз1196100 0.6 1022157
13:00−31ссз1287100 0.2 1020404
16:00−30с2288100 0.3 1018475
19:00−32ссв2299100 0.1 101819
22:00−33с2299100 0.2 101819
4 марта, чт
чт401:00−34ссз2299100 0.1 101819
04:00−34с2299100 0.2 101820
07:00−35с2299100 0.1 101927
10:00−34ссз2297100 0.1 1020143
13:00−33сз2383100 0.0 1020648
16:00−33сз3382100 0.1 1020685
19:00−34зсз1297100 0.1 102219
22:00−34зсз1299100 0.1 102419
5 марта, пт
пт501:00−34зсз1199100 0.1 102419
04:00−34зсз1198100 0.3 102519
07:00−33зюз1198100 0.1 102519
10:00−31зюз1196100 0.1 1024105
13:00−29зсз2288100 0.1 1023365
16:00−25сз2484100 0.1 1022698
19:00−27зсз1297100 0.1 102319
22:00−27зсз1298100 0.1 102419